Theta_e
322 320 322 326 331 335 335 330 326 323 322 320 318 316 315 314 313 312 308 306 305 304 303 303 303 304 306 306 306 307 307 306 305 311 312 312 311 310 308 306 304 303 303
322 321 320 326 331 334 335 330 326 323 321 320 317 316 314 313 312 311 307 305 305 304 303 303 303 304 305 305 305 307 308 305 302 310 309 311 312 311 307 306 303 300 302
321 321 321 327 333 333 334 330 326 323 322 319 317 315 314 313 312 310 308 305 304 303 303 302 303 303 305 305 304 303 307 308 302 301 309 310 310 309 308 306 303 299 300
318 319 320 327 333 332 332 329 326 324 322 319 317 315 314 313 312 310 308 306 304 302 301 301 302 303 304 303 302 302 302 305 306 303 300 302 306 306 307 304 302 298 298
316 317 319 322 330 330 330 328 326 323 321 319 317 316 314 313 312 310 308 306 304 302 301 300 301 301 302 302 301 300 299 299 301 302 301 301 300 297 301 302 301 298 297
316 316 317 321 325 327 328 328 326 322 320 318 317 316 314 313 312 309 307 305 304 302 300 300 300 300 300 300 299 299 298 297 297 296 296 298 299 298 298 298 298 297 297
315 315 315 317 321 324 325 326 324 321 319 317 316 315 313 312 311 309 307 304 303 302 299 299 299 299 299 298 297 297 296 296 295 295 295 295 295 294 295 296 297 296 296
314 314 314 314 315 318 320 321 321 319 317 316 315 313 312 311 309 306 305 303 301 300 300 299 298 297 296 296 296 295 295 294 293 292 294 294 293 293 292 293 294 295 296
313 313 312 312 313 314 316 316 317 317 315 314 313 312 311 308 307 304 303 303 303 301 298 298 298 299 296 295 295 293 292 291 291 291 291 292 290 290 291 292 292 292 294
312 312 311 311 311 312 314 314 315 314 312 311 312 311 310 308 305 304 302 301 300 300 301 302 299 295 294 294 293 291 290 291 291 290 289 289 289 290 290 290 290 290 291
312 311 310 310 310 310 310 310 310 308 309 309 309 308 307 305 303 302 300 299 298 302 300 296 295 294 294 293 290 289 288 289 288 288 288 288 288 289 289 289 289 289 289
312 311 310 309 308 307 306 305 305 306 305 305 306 306 304 302 301 300 300 298 298 297 296 299 298 296 293 291 289 287 288 288 287 287 287 287 288 288 288 288 288 288 288
311 311 310 309 307 305 304 302 301 300 301 302 303 303 302 301 300 299 297 296 296 297 299 299 297 295 291 287 286 286 286 286 286 286 287 287 287 287 287 287 287 287 286
310 311 310 308 308 305 304 301 300 300 300 301 302 301 301 300 299 299 299 299 298 299 298 296 293 290 287 285 285 286 286 285 285 285 285 285 284 284 284 284 285 284 285
308 310 310 310 309 306 304 302 301 301 301 301 301 300 300 300 299 299 297 297 298 296 294 291 289 287 285 284 285 285 285 285 284 283 284 284 283 282 282 282 282 281 282
307 308 310 310 309 307 305 303 300 301 300 301 300 300 299 299 297 297 297 295 294 292 291 289 286 286 285 285 284 284 284 283 284 283 283 283 282 282 283 282 281 281 280
309 308 310 310 310 309 307 305 301 301 302 301 300 299 298 297 296 296 294 292 291 291 287 286 286 285 284 283 283 284 284 284 283 283 282 281 281 282 280 281 281 280 280
307 307 307 307 309 310 308 306 302 301 301 302 301 299 297 296 295 293 291 290 289 287 286 285 286 285 284 283 282 283 283 282 282 281 281 281 281 282 281 281 281 280 280
305 305 305 306 306 307 310 305 305 303 302 301 300 297 296 294 293 290 290 290 287 287 285 285 286 285 282 282 281 283 282 281 281 281 281 280 280 281 281 281 281 279 280
305 305 305 305 306 308 309 307 306 304 302 301 299 297 294 293 291 290 291 290 288 285 285 285 285 284 283 282 281 283 282 281 281 280 280 280 280 280 280 280 279 278 278
303 302 304 304 304 306 308 306 305 304 300 298 296 293 292 293 293 291 289 288 285 283 283 283 284 283 282 281 281 281 282 280 280 280 280 280 280 280 280 279 279 277 278
302 302 303 303 301 300 302 303 302 300 298 296 295 292 292 292 291 290 289 285 283 282 282 282 282 283 282 282 281 281 281 280 280 280 280 279 279 279 279 278 278 277 277
301 302 303 302 299 297 298 299 298 297 296 294 293 292 291 291 290 289 288 283 282 282 282 282 282 282 281 281 281 280 280 280 280 280 279 279 279 278 278 278 278 278 276
302 302 302 301 298 296 294 296 295 294 293 292 291 291 290 289 289 288 286 282 282 282 282 282 283 282 281 281 281 280 280 279 279 280 279 278 278 278 278 277 276 275 274
301 302 301 300 298 296 294 296 294 292 291 290 290 289 289 289 288 286 283 282 281 282 283 283 283 282 282 281 280 280 280 279 279 278 278 277 277 277 277 276 276 275 274
301 303 300 299 298 296 294 296 293 291 290 289 289 289 289 287 285 283 282 282 281 282 282 282 283 282 282 281 280 279 279 278 278 277 277 278 277 276 276 275 275 275 274
Wind_Speed
26 26 25 23 28 28 32 34 33 33 32 30 28 25 23 20 17 16 21 21 20 19 17 15 14 12 11 9 8 4 3 1 4 4 3 3 1 3 2 2 3 6 6
29 27 26 22 28 31 33 34 35 35 36 31 28 25 24 21 19 21 21 22 21 19 17 15 14 13 11 10 8 6 3 2 4 5 7 8 6 5 4 1 2 4 4
11 11 18 21 25 29 34 34 34 34 35 30 28 26 23 22 21 20 21 22 20 19 18 16 15 14 9 8 7 6 9 4 2 6 4 5 3 7 5 2 1 5 3
8 11 12 16 22 25 28 32 34 34 34 32 30 31 30 28 23 22 19 20 19 18 16 15 13 12 10 8 6 6 5 6 4 2 3 7 5 3 5 5 2 6 4
5 7 10 13 19 22 26 32 34 35 36 34 31 31 27 24 23 21 21 19 18 18 16 14 12 11 9 10 9 8 7 8 5 6 3 2 1 3 1 5 4 8 6
2 5 6 6 10 16 21 28 33 37 36 34 32 31 27 25 24 23 21 19 17 15 15 13 12 11 10 10 9 8 7 6 5 4 4 4 4 2 2 2 6 6 6
4 3 2 3 4 11 17 22 30 33 35 33 32 30 27 27 26 25 22 22 19 16 15 12 8 9 11 9 8 8 7 7 6 5 4 4 2 2 1 2 5 6 7
5 4 3 2 3 7 9 20 21 28 33 33 34 27 26 29 26 23 23 22 23 22 17 14 13 9 7 8 7 7 6 5 5 5 6 5 3 2 1 2 6 7 4
4 6 7 4 1 5 10 16 24 25 30 31 31 35 36 34 29 27 24 23 21 18 15 12 8 7 8 8 7 5 5 5 5 4 5 4 3 2 2 3 4 5 7
2 3 5 5 2 2 6 9 19 24 28 32 36 37 36 30 30 30 29 26 22 18 15 15 18 15 10 9 7 7 6 6 5 4 4 4 4 4 3 4 4 4 5
2 1 2 2 2 3 5 9 19 25 28 33 36 34 33 33 33 30 28 23 20 17 19 16 13 10 8 7 6 5 6 6 5 4 3 2 5 3 3 4 3 4 5
4 3 2 1 2 4 7 9 14 18 23 30 32 31 32 30 29 27 26 22 17 17 13 10 9 8 5 4 7 7 7 6 5 4 3 4 4 4 4 4 3 5 6
8 6 3 1 2 4 7 10 13 16 21 27 30 32 32 32 29 25 23 21 19 16 15 11 8 7 10 8 8 8 6 6 5 4 4 5 5 3 3 4 4 6 7
14 11 8 7 6 7 9 11 13 16 20 25 28 30 29 28 27 23 21 20 19 18 14 14 12 11 9 9 9 8 7 5 5 5 5 3 3 2 1 2 4 6 8
13 12 12 11 12 13 15 16 17 19 20 22 26 28 29 28 24 23 21 19 17 16 15 12 12 10 9 10 9 8 8 6 4 3 4 3 1 2 2 3 5 7 8
13 9 12 12 14 16 17 18 21 24 27 29 27 28 26 22 23 22 23 21 18 15 14 14 12 11 12 12 12 11 7 8 7 4 2 3 3 5 4 4 7 8 10
3 5 5 9 14 16 19 22 22 27 27 24 21 25 24 25 24 22 21 19 16 15 15 14 14 12 10 12 13 13 8 8 7 6 4 0 4 4 5 9 11 13 16
1 4 4 5 8 15 19 26 25 26 28 27 22 27 27 26 25 23 22 20 18 17 16 14 13 9 11 13 14 12 8 7 6 5 3 1 0 7 7 8 7 8 8
6 6 6 7 10 11 18 25 29 25 28 31 29 32 32 30 29 26 24 23 23 19 16 16 14 10 12 13 14 12 9 8 5 4 4 4 3 6 9 9 9 9 9
4 6 8 8 8 10 14 27 29 26 31 35 34 35 34 33 29 28 27 23 19 17 17 16 14 12 12 14 14 12 9 9 6 4 4 3 5 8 10 11 11 10 13
3 6 8 8 7 5 10 26 28 26 29 33 34 36 36 29 27 27 26 22 20 19 18 17 15 13 11 14 14 11 10 8 7 5 4 6 7 10 11 12 12 15 20
4 5 5 6 4 2 11 20 25 27 27 29 34 37 31 31 29 26 24 20 20 20 20 20 17 14 12 14 12 10 8 7 7 5 6 8 10 12 13 13 15 18 20
5 3 3 4 3 4 9 16 22 24 24 29 34 33 33 30 28 27 24 23 21 22 21 20 17 15 14 13 12 11 9 8 7 5 7 9 12 12 14 15 16 17 14
5 4 4 6 6 7 8 10 14 19 22 29 33 35 32 30 27 24 24 24 25 25 22 19 17 15 13 13 14 12 10 9 6 6 8 10 12 13 14 15 13 14 14
6 5 5 8 10 10 10 7 11 16 24 28 32 31 29 27 25 22 24 23 25 23 21 20 18 16 14 13 12 11 9 7 5 7 10 9 8 9 10 10 12 13 14
8 7 7 11 12 12 13 8 12 19 24 28 29 29 28 25 21 20 20 17 22 23 21 20 19 19 17 17 12 11 10 8 8 9 7 8 9 10 11 11 13 13 15
Wind_Direction
250 246 243 232 220 211 204 199 197 199 191 191 187 189 183 181 179 186 205 197 199 199 195 197 192 189 190 194 189 173 153 175 175 184 206 222 172 149 145 100 52 64 36
250 244 234 220 216 211 206 202 200 197 194 194 191 189 184 182 182 197 197 198 200 201 199 194 191 189 194 192 189 166 170 195 189 191 228 219 219 226 176 137 49 59 45
317 262 234 212 212 211 207 207 204 201 196 194 187 185 183 179 181 188 190 194 195 193 198 195 195 191 181 188 182 182 160 197 203 180 187 233 221 171 203 172 281 6 358
325 314 289 223 214 215 213 210 207 204 200 195 193 189 187 185 186 183 181 187 189 189 190 190 188 180 184 183 184 197 178 137 170 107 172 193 187 232 210 215 284 1 356
340 312 293 270 221 219 214 215 211 206 203 199 197 192 190 189 184 177 175 175 178 186 186 183 183 183 183 190 194 194 192 182 150 154 113 103 125 191 219 249 262 333 331
359 333 310 271 228 218 218 218 209 204 205 202 197 195 191 187 181 178 169 165 164 168 176 179 180 183 192 193 198 197 197 197 199 182 165 141 131 83 58 297 313 314 327
42 12 347 318 226 215 213 210 208 203 203 203 199 198 191 190 180 175 172 167 160 159 165 171 169 188 195 193 192 189 187 187 191 170 141 121 92 85 37 315 308 308 316
16 21 17 81 235 220 209 212 202 205 202 204 199 199 190 186 178 167 172 162 167 173 178 189 197 187 189 182 187 182 186 183 189 171 152 134 127 105 95 25 339 340 325
26 14 20 11 278 227 216 217 209 202 199 205 195 194 192 182 185 177 179 185 187 182 171 186 205 229 208 200 190 188 187 177 158 164 149 137 103 72 42 39 16 357 333
65 10 8 4 338 227 205 203 208 208 201 196 199 195 191 194 191 187 182 183 176 180 184 209 212 199 188 194 191 197 177 159 163 173 146 124 96 75 46 32 20 357 319
242 346 21 19 80 117 150 175 177 183 191 197 196 195 193 189 186 181 181 176 173 186 192 181 181 178 201 198 191 181 178 174 166 145 149 131 107 108 48 34 9 343 310
292 306 333 30 78 136 151 173 194 202 204 195 198 195 189 183 183 182 179 173 177 177 168 187 192 204 209 221 199 169 177 165 153 142 124 97 80 68 30 34 355 321 318
258 255 249 227 182 159 161 170 186 195 196 196 191 185 183 183 180 175 163 167 176 178 193 210 204 209 205 193 186 172 171 160 147 123 112 101 92 78 41 14 356 328 319
247 243 241 229 207 190 183 176 177 178 186 189 187 183 183 183 179 183 185 187 182 187 192 200 192 198 186 178 167 169 161 151 166 158 136 158 173 183 128 38 341 323 330
252 239 233 218 207 191 190 186 183 181 184 183 186 187 187 187 189 186 177 177 184 188 188 182 189 183 165 167 161 158 149 146 127 132 128 228 281 321 339 340 328 332 330
272 258 229 224 215 207 196 192 181 183 189 192 195 193 188 192 184 181 179 181 181 177 182 182 163 177 197 185 177 145 150 140 117 121 102 332 346 341 341 355 339 328 327
192 282 259 231 221 217 207 199 203 205 204 203 221 215 201 186 185 184 178 172 168 177 162 158 165 190 177 172 164 155 144 137 141 145 140 241 318 345 324 340 352 343 328
340 280 286 279 259 221 212 207 208 214 207 214 218 199 191 188 183 176 168 163 167 163 165 160 159 184 171 169 165 166 143 142 151 149 141 146 336 291 327 340 333 320 314
298 319 316 296 276 260 220 203 224 224 218 215 209 196 190 185 179 173 172 172 170 171 166 164 158 191 170 169 167 159 155 157 166 186 209 208 242 331 329 330 334 321 308
327 324 327 320 307 282 231 216 228 230 227 218 208 198 192 188 178 179 185 181 171 161 164 161 160 176 178 173 173 168 178 171 182 206 245 245 306 316 321 330 332 311 304
359 351 342 335 329 323 193 210 225 225 227 220 205 194 191 186 184 185 182 167 161 162 161 163 168 162 186 175 180 185 181 185 194 218 255 292 304 308 317 324 326 316 321
337 337 353 329 316 263 223 222 221 224 223 216 205 195 188 187 187 185 178 164 166 166 170 168 167 169 188 180 179 185 201 201 213 228 267 291 301 310 315 320 324 321 321
312 317 331 273 260 228 231 225 224 221 216 205 197 190 188 186 185 181 176 166 169 172 174 172 168 178 184 188 184 194 200 219 230 252 286 296 302 307 311 319 318 320 328
278 275 248 236 221 203 222 225 222 215 204 193 188 186 184 181 182 182 176 174 175 179 181 175 176 181 184 198 194 197 205 222 244 264 284 290 296 303 314 325 328 316 316
273 260 239 226 213 223 215 226 208 201 188 186 185 183 182 183 181 177 178 185 192 192 186 185 184 183 189 202 205 203 209 227 256 283 287 292 300 301 303 307 311 313 315
281 259 227 252 233 222 228 219 200 186 183 182 182 182 181 180 172 167 167 180 189 186 188 191 189 195 195 219 217 223 231 246 265 273 275 283 291 294 300 308 310 311 310